Погода в Буденновске

Хотите узнать прогноз погоды в Буденновске? Тогда Вам сюда: Погода в Буденновске

Поиск расширенной информации на нашем сайте:

Полезная информация:

Новости сайта



02.01.2020
Опубликован Долгосрочный прогноз погоды по городам России и ближнего зарубежья на январь 2020 года.
Карты: Прогноз на январь и февраль 2020 года, Сравнение прогнозируемой аномалии приземной температуры воздуха на январь 2020 года по разным моделям.




Погода в Буденновске - сегодня

Время (UTC), дата Ветер
(°,м/с) 
Видим.   Явления Облачность Т
(°С)
Тd
(°С)
f(%) Тe
(°С)
Pmin
(гПа)
dP
(гПа)
Po
(мм)
O2
(г/м3)
Тmin Tmax R s Состояние
почвы
15 27.03.20 090 (В) 6-12{14}  10 км    ясно 
+13.8 -8.6 20 +13  1020.7  0.2  753  290    +17.8       
18 27.03.20 080 (В) 3{12}  20000 м    ясно 
+7.7 -6.9 35 +7  1021.9  0.8  754  296           
21 27.03.20 070 (В) 20000 м    ясно 
+3.5 -4.1 57 +2  1021.4  -0.8  753  300           
00 28.03.20 060 (СВ) 10 км    ясно 
+1.6 -1.5 80 1020.3  -1.2  753  302           
03 28.03.20 060 (СВ) 4000 м  дымка  ясно 
+1.3 -0.6 87 1019.3  -1.2  752  302  +1.3         
06 28.03.20 110 (В) 6-10{10}  10 км    1/0 верхняя 
[Ci fib]
+8.5 +0.9 59 +7  1018.2  -0.7  751  293  +1.3         
09 28.03.20 110 (В) 8-14{14}  10 км    1/0 верхняя 
[Ci fib]
+16.2 -7.3 19 +15  1015.4  -2.3  750  286           
12 28.03.20 100 (В) 7-15{15}  10 км  пыльный позёмок  ясно 
+18.5 -10.3 13 +18  1013.1  -2.2  748  283           
15 28.03.20 090 (В) 6-12{15}  10 км    1/0 верхняя 
[Ci fib]
+13.8 -2.4 32 +13  1013.2  0.1  748  287    +18.8       
18 28.03.20 070 (В) 5{12}  10 км    ясно 
+8.1 -0 57 +7  1013.1  -0.4  748  292           
21 28.03.20 070 (В) 5{11}  10 км    ясно 
+5.8 -2 57 +4  1011.3  -1.9  746  295           
00 29.03.20 070 (В) 10 км    ясно 
+5.3 -0.6 66 +3  1009.1  -2.2  744  294           
03 29.03.20 060 (СВ) 2{10}  10 км    ясно 
+3.9 -0.5 73 +3  1008.2  -1  744  295  +3.9         
06 29.03.20 110 (В) 6-11{12}  10 км    ясно 
+10.3 +0.9 52 +9  1006.9  -0.9  743  288           
09 29.03.20 120 (ЮВ) 6-10{12}  10 км    ясно 
+16.7 +0.7 34 +16  1004.6  -1.9  742  281           
12 29.03.20 100 (В) 6-11{13}  10 км    3/0 верхняя 
[Ci fib]
+18.8 -2.8 23 +19  1002.7  -1.8  740  279           
15 29.03.20 100 (В) 5-11  10 км    3/0 верхняя 
[Ci fib]
+15.6 -5.2 23 +15  1003  0.1  740  283    +19       
18 29.03.20 080 (В) 4{11}  20000 м    ясно 
+9.6 -0.4 50 +9  1004  0.7  741  288           
21 29.03.20 050 (СВ) 20000 м    ясно 
+5.9 -0 66 +6  1003.6  -0.7  740  292           
00 30.03.20 050 (СВ) 10 км    6/0 средняя 
[Ac trans]
+5 +0.3 72 +6  1002.9  -0.7  740  293           
03 30.03.20 010 (С) 10 км    8/3 600 м средняя 
[Sc|Ac trans]
+3.1 +0.5 83 +4  1003.4  0.4  740  295  +3.1         
06 30.03.20 360 (С) 10 км    9/8 600 м средняя 
[Sc|Ac trans]
+9.7 +3.7 66 +10  1003.2  0.1  740  287  +2.9         
09 30.03.20 360 (С) 10 км    3/0 средняя, верхняя 
[Ac trans|Ci fib]
+15.4 +3.9 46 +16  1002.3  -0.5  740  282           
12 30.03.20 020 (С) 10 км    8/8 600 м 
[Cu med, cong]
+17.6 +1.8 35 +19  1002.1  0.1  740  280           
15 30.03.20 290 (З) 7-11{13}  10 км    9/4 600 м средняя, верхняя 
[Sc|Ac trans|Ci fib]
+13.2 +5.7 60 +12  1003.8  1.5  741  284    +19       
Время (UTC), дата Ветер
(°,м/с) 
Видим.   Явления Облачность Т
(°С)
Тd
(°С)
f(%) Тe
(°С)
Pmin
(гПа)
dP
(гПа)
Po
(мм)
O2
(г/м3)
Тmin Tmax R s Состояние
почвы

Для получения пояснительной информации подведите курсор к названию столбца.

ПОГОДА в Буденновске - архив

Всё, что Вы хотите узнать о погоде в Буденновске - удобно и подробно!

Выберите нужную дату (начиная с 1 января 2019* года) и нажмите кнопку "Найти".
Будут отображены архивные сводки погоды по пункту Буденновск, начиная с указанной даты.


Отображать данные в формате CSV (для использования в таблицах Excel)


Внимание! Наш архив погоды предназначен исключительно для личного некоммерческого использования в познавательных целях. Если Вам необходимы официальные справки о состоянии погоды (для производственных, юридических, коммерческих и т.п. целей), обращайтесь в органы Росгидромета.

*Примечание: данная дата относится к архиву по метеостанциям СССР (Россия, СНГ, Балтия).
Архив по метеостанциям Зарубежной Европы и Азии (кроме Китая) хранится 10 дней, по другим регионам земного шара (Китай, Африка, Америка, Австралия, Океания) - 1 день.

Буденновск - район местоположения метеостанции


Название, широта, долгота, высота метеостанции:
Буденновск (Прикумск) 44.8°ш. 44.1°д. 136 м над ур. моря [Российская Федерация]

Дополнительная информация

В oтличие oт бoльшинства пoгoдных сайтoв мы публикуем пoдрoбную метеoинфoрмацию в детальнoм прoфессиoнальнoм фoрмате.

Характеристики температуры и влажнoсти вoздуха измеряются на высoте 2 м в тени вдали oт зданий и деревьев.
Скoрoсть ветра измеряется на высoте 10 м (на урoвне рoста челoвека скoрoсть ветра ниже в 1.5-2 раза). Если метеoстанция нахoдится в гoрoде или в лесу, тo скoрoсть ветра занижена на 2-4 м/с пo сравнению с oткрытым местoм. Скoрoсть ветра над акватoриями крупных рек и oзёр, а также на вершинах хoлмoв на 2-5 м/с выше, чем в oбычных услoвиях.
Атмoсфернoе давление в разных тoчках местнoсти мoжет значительнo oтличаться oт давления на метеoстанции, в зависимoсти oт услoвий рельефа (при пoдъёме на 10 м давление пoнижается примернo на 1 мм рт.ст.).